When you browse on this site, cookies collect data to enhance your experience and personalize the content and advertising you see.
Visit our Privacy Policy to learn more. By continuing to use the site, you agree to this use of cookies and data.
  • Em Portugal
  • Lista de países
  • Para 7 dias
  • Temperatura da água
  • Mapa do tempo
  • Widgets de tempo
  • user-avatar
    Iniciar Sessão

    Previsão horária em Chiangmaj

    Hoje, 28 Março, Sábado

    Tempo Temperatura Precipitação Vento Pressão Humidade
    00:00 +21°C° 0 mm 2 m/s 688 mmHg 42%
    01:00 +21°C° 0 mm 1 m/s 688 mmHg 44%
    02:00 +21°C° 0 mm 1 m/s 687 mmHg 45%
    03:00 +20°C° 0 mm 1 m/s 687 mmHg 46%
    04:00 +20°C° 0 mm 1 m/s 686 mmHg 47%
    05:00 +20°C° 0 mm 1 m/s 687 mmHg 47%
    06:00 +20°C° 0 mm 1 m/s 688 mmHg 47%
    07:00 +19°C° 0 mm 0 m/s 688 mmHg 47%
    08:00 +24°C° 0 mm 0 m/s 689 mmHg 38%
    09:00 +30°C° 0 mm 1 m/s 690 mmHg 29%
    10:00 +35°C° 0 mm 1 m/s 691 mmHg 21%
    11:00 +37°C° 0 mm 1 m/s 691 mmHg 18%
    12:00 +39°C° 0 mm 1 m/s 690 mmHg 16%
    13:00 +40°C° 0 mm 2 m/s 690 mmHg 13%
    14:00 +40°C° 0 mm 2 m/s 689 mmHg 13%
    15:00 +40°C° 0 mm 2 m/s 688 mmHg 13%
    16:00 +40°C° 0 mm 2 m/s 687 mmHg 13%
    17:00 +37°C° 0 mm 2 m/s 687 mmHg 16%
    18:00 +33°C° 0 mm 1 m/s 686 mmHg 19%
    19:00 +29°C° 0 mm 1 m/s 686 mmHg 23%
    20:00 +28°C° 0 mm 1 m/s 687 mmHg 28%
    21:00 +26°C° 0 mm 1 m/s 687 mmHg 33%
    22:00 +24°C° 0 mm 2 m/s 687 mmHg 38%
    23:00 +23°C° 0 mm 2 m/s 687 mmHg 45%

    Amanhã, 29 Março, Domingo

    Tempo Temperatura Precipitação Vento Pressão Humidade
    00:00 +23°C° 0 mm 1 m/s 687 mmHg 51%
    01:00 +22°C° 0 mm 1 m/s 687 mmHg 57%
    02:00 +21°C° 0 mm 1 m/s 687 mmHg 60%
    03:00 +21°C° 0 mm 1 m/s 686 mmHg 62%
    04:00 +20°C° 0 mm 1 m/s 686 mmHg 64%
    05:00 +20°C° 0 mm 1 m/s 686 mmHg 63%
    06:00 +21°C° 0 mm 1 m/s 687 mmHg 62%
    07:00 +21°C° 0 mm 1 m/s 687 mmHg 61%
    08:00 +25°C° 0 mm 1 m/s 688 mmHg 47%
    09:00 +30°C° 0 mm 1 m/s 690 mmHg 33%
    10:00 +35°C° 0 mm 1 m/s 691 mmHg 19%
    11:00 +37°C° 0 mm 1 m/s 690 mmHg 16%
    12:00 +39°C° 0 mm 2 m/s 690 mmHg 13%
    13:00 +41°C° 0 mm 2 m/s 689 mmHg 10%
    14:00 +42°C° 0 mm 3 m/s 688 mmHg 10%
    15:00 +42°C° 0 mm 3 m/s 688 mmHg 10%
    16:00 +40°C° 0 mm 3 m/s 687 mmHg 10%
    17:00 +37°C° 0 mm 3 m/s 686 mmHg 14%
    18:00 +34°C° 0 mm 3 m/s 686 mmHg 17%
    19:00 +30°C° 0 mm 2 m/s 686 mmHg 21%
    20:00 +29°C° 0 mm 2 m/s 686 mmHg 26%
    21:00 +27°C° 0 mm 2 m/s 687 mmHg 30%
    22:00 +25°C° 0 mm 2 m/s 687 mmHg 35%
    23:00 +25°C° 0 mm 2 m/s 687 mmHg 35%

    Depois de amanhã, 30 Março, Segunda-feira

    Tempo Temperatura Precipitação Vento Pressão Humidade
    00:00 +24°C° 0 mm 1 m/s 687 mmHg 36%
    01:00 +23°C° 0 mm 1 m/s 687 mmHg 37%
    02:00 +22°C° 0 mm 1 m/s 687 mmHg 37%
    03:00 +22°C° 0 mm 1 m/s 686 mmHg 38%
    04:00 +21°C° 0 mm 1 m/s 686 mmHg 38%
    05:00 +21°C° 0 mm 1 m/s 687 mmHg 41%
    06:00 +21°C° 0 mm 1 m/s 687 mmHg 43%
    07:00 +21°C° 0 mm 1 m/s 688 mmHg 46%
    08:00 +25°C° 0 mm 1 m/s 689 mmHg 38%
    09:00 +30°C° 0 mm 1 m/s 690 mmHg 31%
    10:00 +35°C° 0 mm 1 m/s 691 mmHg 23%
    11:00 +36°C° 0 mm 1 m/s 691 mmHg 20%
    12:00 +39°C° 0 mm 2 m/s 690 mmHg 18%
    13:00 +41°C° 0 mm 2 m/s 690 mmHg 15%
    14:00 +41°C° 0 mm 2 m/s 689 mmHg 15%
    15:00 +42°C° 0 mm 3 m/s 688 mmHg 15%
    16:00 +40°C° 0 mm 3 m/s 687 mmHg 15%
    17:00 +38°C° 0 mm 3 m/s 687 mmHg 18%
    18:00 +35°C° 0 mm 3 m/s 687 mmHg 22%
    19:00 +31°C° 0 mm 2 m/s 687 mmHg 25%
    20:00 +30°C° 0 mm 2 m/s 687 mmHg 30%
    21:00 +28°C° 0 mm 2 m/s 687 mmHg 34%
    22:00 +26°C° 0 mm 2 m/s 688 mmHg 38%
    23:00 +25°C° 0 mm 2 m/s 688 mmHg 41%

    31 Março, Terça-feira

    Tempo Temperatura Precipitação Vento Pressão Humidade
    00:00 +24°C° 0 mm 2 m/s 688 mmHg 43%
    01:00 +23°C° 0 mm 1 m/s 687 mmHg 46%
    02:00 +23°C° 0 mm 1 m/s 687 mmHg 46%
    03:00 +22°C° 0 mm 1 m/s 687 mmHg 47%
    04:00 +21°C° 0 mm 1 m/s 687 mmHg 47%
    05:00 +21°C° 0 mm 1 m/s 687 mmHg 51%
    06:00 +21°C° 0 mm 1 m/s 688 mmHg 54%
    07:00 +21°C° 0 mm 1 m/s 688 mmHg 58%
    08:00 +26°C° 0 mm 1 m/s 689 mmHg 47%
    09:00 +30°C° 0 mm 1 m/s 691 mmHg 37%
    10:00 +35°C° 0 mm 1 m/s 692 mmHg 26%
    11:00 +37°C° 0 mm 1 m/s 691 mmHg 23%
    12:00 +39°C° 0 mm 2 m/s 691 mmHg 19%
    13:00 +41°C° 0 mm 2 m/s 690 mmHg 15%
    14:00 +41°C° 0 mm 2 m/s 689 mmHg 15%
    15:00 +42°C° 0 mm 3 m/s 688 mmHg 15%
    16:00 +40°C° 0 mm 3 m/s 687 mmHg 15%
    17:00 +38°C° 0 mm 3 m/s 687 mmHg 19%
    18:00 +35°C° 0 mm 2 m/s 687 mmHg 22%
    19:00 +32°C° 0 mm 2 m/s 687 mmHg 26%
    20:00 +30°C° 0 mm 2 m/s 687 mmHg 29%
    21:00 +28°C° 0 mm 2 m/s 688 mmHg 33%
    22:00 +27°C° 0 mm 2 m/s 688 mmHg 37%
    23:00 +26°C° 0 mm 1 m/s 688 mmHg 40%

    1 Abril, Quarta-feira

    Tempo Temperatura Precipitação Vento Pressão Humidade
    00:00 +25°C° 0 mm 1 m/s 688 mmHg 44%
    01:00 +25°C° 0 mm 1 m/s 687 mmHg 47%
    02:00 +24°C° 0 mm 1 m/s 687 mmHg 49%
    03:00 +24°C° 0 mm 1 m/s 687 mmHg 50%
    04:00 +23°C° 0 mm 1 m/s 687 mmHg 52%
    05:00 +23°C° 0 mm 1 m/s 688 mmHg 52%
    06:00 +23°C° 0 mm 1 m/s 688 mmHg 52%
    07:00 +23°C° 0 mm 1 m/s 688 mmHg 51%
    08:00 +27°C° 0 mm 1 m/s 689 mmHg 41%
    09:00 +32°C° 0 mm 1 m/s 691 mmHg 31%
    10:00 +36°C° 0 mm 1 m/s 692 mmHg 21%
    11:00 +39°C° 0 mm 1 m/s 691 mmHg 19%
    12:00 +40°C° 0 mm 2 m/s 690 mmHg 17%
    13:00 +42°C° 0 mm 2 m/s 690 mmHg 15%
    14:00 +41°C° 0 mm 2 m/s 689 mmHg 17%
    15:00 +40°C° 0 mm 2 m/s 688 mmHg 18%
    16:00 +39°C° 0 mm 3 m/s 687 mmHg 19%
    17:00 +37°C° 0.1 mm 2 m/s 687 mmHg 24%
    18:00 +34°C° 0.1 mm 2 m/s 686 mmHg 30%
    19:00 +30°C° 0.1 mm 2 m/s 686 mmHg 35%
    20:00 +29°C° 0 mm 2 m/s 687 mmHg 37%
    21:00 +28°C° 0 mm 2 m/s 687 mmHg 39%
    22:00 +27°C° 0 mm 2 m/s 688 mmHg 42%
    23:00 +27°C° 0 mm 2 m/s 688 mmHg 42%

    2 Abril, Quinta-feira

    Tempo Temperatura Precipitação Vento Pressão Humidade
    00:00 +26°C° 0 mm 1 m/s 688 mmHg 43%
    01:00 +25°C° 0 mm 1 m/s 687 mmHg 44%
    02:00 +25°C° 0 mm 1 m/s 687 mmHg 46%
    03:00 +24°C° 0 mm 1 m/s 687 mmHg 49%
    04:00 +23°C° 0 mm 1 m/s 687 mmHg 52%
    05:00 +24°C° 0 mm 1 m/s 687 mmHg 53%
    06:00 +24°C° 0 mm 1 m/s 687 mmHg 54%
    07:00 +24°C° 0 mm 1 m/s 688 mmHg 55%
    08:00 +28°C° 0 mm 1 m/s 689 mmHg 45%
    09:00 +32°C° 0 mm 1 m/s 690 mmHg 34%
    10:00 +36°C° 0 mm 1 m/s 691 mmHg 23%
    11:00 +39°C° 0 mm 1 m/s 690 mmHg 21%
    12:00 +40°C° 0 mm 2 m/s 690 mmHg 18%
    13:00 +41°C° 0 mm 2 m/s 689 mmHg 16%
    14:00 +40°C° 0 mm 2 m/s 688 mmHg 17%
    15:00 +39°C° 0 mm 2 m/s 687 mmHg 19%
    16:00 +38°C° 0 mm 3 m/s 687 mmHg 20%
    17:00 +36°C° 0 mm 2 m/s 686 mmHg 24%
    18:00 +34°C° 0 mm 2 m/s 686 mmHg 27%
    19:00 +31°C° 0 mm 1 m/s 686 mmHg 31%
    20:00 +30°C° 0 mm 1 m/s 687 mmHg 33%
    21:00 +29°C° 0 mm 1 m/s 687 mmHg 36%
    22:00 +27°C° 0 mm 2 m/s 688 mmHg 39%
    23:00 +27°C° 0 mm 1 m/s 688 mmHg 40%
    Mostrar mais